TimeCST,TemperatureF,Dew PointF,Humidity,Sea Level PressureIn,VisibilityMPH,Wind Direction,Wind SpeedMPH,Gust SpeedMPH,PrecipitationIn,Events,Conditions,WindDirDegrees,DateUTC
12:56 AM,55.9,53.1,90,29.80,10.0,South,4.6,-,N/A,,Partly Cloudy,190,2013-12-03 06:56:00
1:56 AM,57.9,55.0,90,29.79,10.0,Calm,Calm,-,N/A,,Mostly Cloudy,0,2013-12-03 07:56:00
2:56 AM,57.0,55.0,93,29.79,10.0,South,4.6,-,N/A,,Mostly Cloudy,170,2013-12-03 08:56:00
3:20 AM,57.0,55.0,93,29.83,1.5,Calm,Calm,-,N/A,,Scattered Clouds,0,2013-12-03 09:20:00
3:30 AM,55.9,54.0,93,29.83,0.8,Calm,Calm,-,N/A,,Partly Cloudy,0,2013-12-03 09:30:00
3:49 AM,55.9,54.0,93,29.82,0.5,Calm,Calm,-,N/A,Fog,Fog,0,2013-12-03 09:49:00
3:56 AM,54.0,53.1,97,29.79,0.5,Calm,Calm,-,N/A,Fog,Fog,0,2013-12-03 09:56:00
4:36 AM,59.0,57.0,93,29.82,2.0,Calm,Calm,-,N/A,,Overcast,0,2013-12-03 10:36:00
4:44 AM,59.0,57.9,96,29.82,6.0,Calm,Calm,-,N/A,,Overcast,0,2013-12-03 10:44:00
4:56 AM,57.0,55.9,96,29.78,2.5,Calm,Calm,-,N/A,,Overcast,0,2013-12-03 10:56:00
5:11 AM,60.1,57.0,90,29.82,5.0,Calm,Calm,-,N/A,,Overcast,0,2013-12-03 11:11:00
5:56 AM,60.1,57.9,93,29.79,9.0,SSE,5.8,-,0.00,,Mostly Cloudy,160,2013-12-03 11:56:00
6:56 AM,60.1,57.9,93,29.80,6.0,South,3.5,-,N/A,,Mostly Cloudy,170,2013-12-03 12:56:00
7:56 AM,63.0,61.0,93,29.81,10.0,South,4.6,-,N/A,,Scattered Clouds,170,2013-12-03 13:56:00
8:56 AM,70.0,63.0,78,29.83,10.0,South,6.9,-,N/A,,Scattered Clouds,190,2013-12-03 14:56:00
9:56 AM,75.0,61.0,62,29.83,10.0,Variable,6.9,-,N/A,,Scattered Clouds,0,2013-12-03 15:56:00
10:56 AM,77.0,61.0,58,29.82,10.0,Variable,5.8,-,N/A,,Mostly Cloudy,0,2013-12-03 16:56:00
11:56 AM,78.1,61.0,56,29.80,10.0,SSW,11.5,20.7,N/A,,Mostly Cloudy,210,2013-12-03 17:56:00
12:56 PM,75.9,59.0,56,29.78,10.0,SW,8.1,-,N/A,,Mostly Cloudy,220,2013-12-03 18:56:00
1:56 PM,75.9,60.1,58,29.77,10.0,SSW,8.1,-,N/A,,Mostly Cloudy,210,2013-12-03 19:56:00
2:56 PM,75.0,62.1,64,29.77,10.0,SSW,8.1,-,N/A,,Mostly Cloudy,200,2013-12-03 20:56:00
3:56 PM,72.0,63.0,73,29.77,10.0,South,8.1,-,N/A,,Mostly Cloudy,190,2013-12-03 21:56:00
4:56 PM,70.0,63.0,78,29.78,10.0,South,6.9,-,N/A,,Mostly Cloudy,190,2013-12-03 22:56:00
5:56 PM,69.1,63.0,81,29.80,10.0,SSE,4.6,-,N/A,,Overcast,150,2013-12-03 23:56:00
6:56 PM,68.0,64.0,87,29.82,10.0,Calm,Calm,-,N/A,,Mostly Cloudy,0,2013-12-04 00:56:00
7:56 PM,66.0,63.0,90,29.81,10.0,South,8.1,-,N/A,,Mostly Cloudy,170,2013-12-04 01:56:00
8:56 PM,64.9,63.0,93,29.83,10.0,South,4.6,-,N/A,,Mostly Cloudy,180,2013-12-04 02:56:00
9:56 PM,64.9,63.0,93,29.84,10.0,South,4.6,-,N/A,,Mostly Cloudy,170,2013-12-04 03:56:00
10:38 PM,64.0,62.1,93,29.88,3.0,South,4.6,-,N/A,,Mostly Cloudy,180,2013-12-04 04:38:00
10:48 PM,64.0,62.1,93,29.88,1.5,South,4.6,-,N/A,,Mostly Cloudy,180,2013-12-04 04:48:00
10:56 PM,64.0,62.1,93,29.84,1.0,Calm,Calm,-,N/A,,Mostly Cloudy,0,2013-12-04 04:56:00
10:59 PM,64.0,62.1,93,29.88,0.5,Calm,Calm,-,N/A,Fog,Fog,0,2013-12-04 04:59:00
11:56 PM,63.0,62.1,97,29.84,0.5,South,4.6,-,N/A,Fog,Fog,180,2013-12-04 05:56:00